Tracking 27086 objects as of 23-Mar-2023
HD Live streaming from Space Station
objects crossing your sky now

SL-16 DEB

Track SL-16 DEB now!
10-day predictions


NORAD ID: 22333
Int'l Code: 1992-093W
Perigee: 660.9 km
Apogee: 845.3 km
Inclination: 71.0 °
Period: 99.7 minutes
Semi major axis: 7124 km
RCS: 0.1907 m2 (medium)
Launch date: December 25, 1992
Source: Commonwealth of Independent States (former USSR) (CIS)
Launch site: TYURATAM MISSILE AND SPACE COMPLEX (TTMTR)

Note: This is SATELLITE DEBRIS
Your satellite tracking list
Your tracking list is empty




NASA's NSSDC Master Catalog

Two Line Element Set (TLE):
1 22333U 92093W   23080.57558654  .00000694  00000-0  19945-3 0  9994
2 22333  71.0049 167.8018 0129439 302.6168  56.2529 14.43807590589564
Source of the keplerian elements: AFSPC